Regional Weather Roundup
Issued by NWS Sterling, VA

Home | Current Version | Previous Version | Graphics & Text | Print | Product List | Glossary On
Versions: 1 2 3 4 5 6 7 8 9 10 11 12 13 14 15 16 17 18 19 20 21 22 23 24 25 26 27 28 29 30 31 32 33 34 35 36 37 38 39 40 41 42 43 44 45 46 47 48 49 50
000
ASUS41 KLWX 262210
RWRLWX

REGIONAL WEATHER ROUNDUP
NATIONAL WEATHER SERVICE BALTIMORE MD/WASHINGTON DC
600 PM EDT TUE MAY 26 2015

Note: "FAIR" indicates few or no clouds below 12,000 feet
with no significant weather and/or obstructions to visibility.
 TC=TEMPERATURE CELSIUS

 * =Non NWS site. Station does not report precipitation (e.g. rain,
    snow, etc.), thunder, or fog.

DCZ001-MDZ009-015-VAZ040>042-051-053>054-262300-
WASHINGTON METRO

CITY           SKY/WX    TMP DP  RH WIND       PRES   REMARKS
WASHINGTON NAT PTSUNNY   85  69  58 S12       30.14F
DULLES         PTSUNNY   85  66  53 S9        30.13F
ANDREWS AFB    MOSUNNY   85  67  54 S13       30.14F
FT BELVOIR     MOSUNNY   85  67  54 S7        30.14F
QUANTICO       MOSUNNY   82  69  64 S8        30.15F
COLLEGE PARK*  MOSUNNY   86  64  48 S6        30.14S
LEESBURG*      SUNNY     88  68  51 S14G20    30.14F HX  91
MANASSAS*      SUNNY     86  68  54 SW10      30.14S
GAITHERSBURG*  PTSUNNY   84  66  54 SE9       30.18S

$$

MDZ006>007-011-014-262300-
BALTIMORE METRO

CITY           SKY/WX    TMP DP  RH WIND       PRES   REMARKS
BWI AIRPORT    PTSUNNY   82  68  62 SE9       30.13F
MD SCIENCE CTR   N/A     83  66  56 MISG      30.14F
MARTIN STATE   PTSUNNY   81  70  69 S14G21    30.16F
ANNAPOLIS      PTSUNNY   77  64  64 S13G23    30.15F
FORT MEADE*    PTSUNNY   82  64  54 S9        30.16S

$$

MDZ012-015-019>023-262300-
MARYLAND EASTERN SHORE

CITY           SKY/WX    TMP DP  RH WIND       PRES   REMARKS
OCEAN CITY     SUNNY     71  63  75 S9G18     30.23F
SALISBURY      SUNNY     79  64  60 S12G20    30.20S
BAY BRIDGE AP*   N/A    N/A N/A N/A S9        30.15F
CAMBRIDGE*     MOSUNNY   81  63  54 S12G23    30.18S
EASTON*        MOSUNNY   82  66  57 SW10G17   30.21F

$$

MDZ017>025-262300-
SOUTHERN MARYLAND

CITY           SKY/WX    TMP DP  RH WIND       PRES   REMARKS
PATUXENT RIVER PTSUNNY   80  63  55 SE12G21   30.16F
ST INIGOES     SUNNY     78  64  61 SE15G23   30.16F
LEONARDTOWN*   MOSUNNY   81  64  57 SE6       30.18F

$$

MDZ003>005-262300-
NORTH CENTRAL MARYLAND

CITY           SKY/WX    TMP DP  RH WIND       PRES   REMARKS
FREDERICK*     NOT AVBL
HAGERSTOWN APT SUNNY     84  62  47 S8        30.13F
WESTMINSTER*   MOSUNNY   88  66  48 S6        30.15F HX  90

$$

MDZ501>502-262300-
WESTERN MARYLAND

CITY           SKY/WX    TMP DP  RH WIND       PRES   REMARKS
OAKLAND*       MOSUNNY   73  66  78 S7        30.22F
CUMBERLAND*    MOSUNNY   86  63  45 S3        30.16F

$$

VAZ025>031-262300-
SHENANDOAH VALLEY

CITY           SKY/WX    TMP DP  RH WIND       PRES   REMARKS
WINCHESTER*    MOSUNNY   84  59  42 SE6       30.14F
FRONT ROYAL*   FAIR      82  70  65 S5        30.13S
LURAY*         MOCLDY    88  68  51 S5        30.14F HX  91
NEW MARKET*    FAIR      84  64  50 S3        30.12S
STAUNTON*      CLOUDY    71  69  93 CALM      30.22R
WAYNESBORO*    CLOUDY    73  68  84 W5        30.21R

$$

WVZ021-048>050-054>055-262300-
EASTERN WEST VIRGINIA PANHANDLE

CITY           SKY/WX    TMP DP  RH WIND       PRES   REMARKS
MARTINSBURG    SUNNY     84  64  50 SE6       30.14F
PETERSBURG*    PTSUNNY   81  62  53 S3        30.14F

$$

VAZ036>039-050-262300-
CENTRAL FOOTHILLS

CITY           SKY/WX    TMP DP  RH WIND       PRES   REMARKS
CHARLOTTESVILL MOSUNNY   84  66  54 S17       30.15S
CULPEPER*      PTSUNNY   84  68  59 S8        30.14F
ORANGE*        MOSUNNY   86  68  54 S10G16    30.16F
GORDONSVILLE*  FAIR      83  68  59 S13G18    30.14F
WARRENTON*     FAIR      85  70  60 S7        30.14F

$$

VAZ055>057-262300-
NORTH AND CENTRAL PIEDMONT

CITY           SKY/WX    TMP DP  RH WIND       PRES   REMARKS
FREDERICKSBRG* MOSUNNY   88  69  52 S10       30.14F HX  92
STAFFORD*      MOSUNNY   84  65  51 S8        30.18F

$$

NCZ024-NYZ072-PAZ021-071-VAZ022-071-262300-
OTHER REGIONAL OBSERVATIONS

CITY           SKY/WX    TMP DP  RH WIND       PRES   REMARKS
NEW YORK CITY  MOSUNNY   82  60  47 CALM      30.16F
PHILADELPHIA   PTSUNNY   87  62  43 SW13      30.14F
PITTSBURGH     MOSUNNY   80  66  62 S10G18    30.09F
ROANOKE        PTSUNNY   82  63  52 S12       30.19S
RICHMOND       PTSUNNY   85  66  53 S12       30.17F
RALEIGH        PTSUNNY   86  66  51 SW8       30.19F

$$

ANZ530>537-262300-
MARINE OBSERVATIONS

STATION/POSITION TIME  TEMP    WIND        PRES
                       AIR SEA DIR/SP/G
                 (UTC) (F)     (DEG/KT/KT) (MB)
THOMAS PT LIGHT  2200   74 69  160/ 21/ 22 1021.3F
BALT KEY BRIDGE  2100   77     140/ 13/ 15 1020.6F
COVE POINT       2100   71     180/ 20/ 21 1022.6F
LEWISETTA        2100   80 75              1021.6F
SOLOMONS ISLAND  2100      72                N/A
PINEY POINT      2100          160/ 13/ 17   N/A

$$




USA.gov is the U.S. government's official web portal to all federal, state and local government web resources and services.